Regional Weather Roundup
Issued by NWS

Home | Current Version | Previous Version | Graphics & Text | Print | Product List | Glossary On
Versions: 1 2 3 4 5 6 7 8 9 10 11 12 13 14 15 16 17 18 19 20 21 22 23 24 25 26 27 28 29 30 31 32 33 34 35 36 37 38 39 40 41 42 43 44 45 46 47 48 49 50
000
ASUS43 KLOT 071408
RWRIL

ILLINOIS REGIONAL WEATHER ROUNDUP
NATIONAL WEATHER SERVICE CHICAGO/ROMEOVILLE IL
900 AM CDT TUE JUL 07 2015

NOTE: "FAIR" INDICATES FEW OR NO CLOUDS BELOW 12,000 FEET WITH NO
SIGNIFICANT WEATHER AND/OR OBSTRUCTIONS TO VISIBILITY.

* THESE STATIONS ARE NOT UNDER NWS QUALITY CONTROL. THEY ALSO MAY NOT
  REPORT WEATHER SUCH AS PRECIPITATION OR FOG.

ILZ001-002-007-009-015-016-024-071500-
NORTHWEST ILLINOIS

CITY           SKY/WX    TMP DP  RH WIND       PRES   REMARKS
MOLINE         CLOUDY    65  58  78 N9        30.00R HAZE
STERLING*      CLOUDY    64  59  82 N10       30.00R
SAVANNA*       CLOUDY    65  57  76 N6        30.01S HAZE
$$

ILZ003-004-008-010-011-017-018-071500-
NORTH CENTRAL ILLINOIS

CITY           SKY/WX    TMP DP  RH WIND       PRES   REMARKS
ROCKFORD       CLOUDY    65  56  72 NE16      30.01R HAZE
FREEPORT*      PTSUNNY   64  58  81 N7G16     30.03R HAZE
ROCHELLE*      CLOUDY    63  58  85 N10       30.00R HAZE
DE KALB*       CLOUDY    56  55  95 NE16      30.00R FOG
PERU*          CLOUDY    64  60  87 NE15      29.98R
$$

ILZ005-006-012>014-019>023-071500-
NORTHEAST ILLINOIS

CITY           SKY/WX    TMP DP  RH WIND       PRES   REMARKS
CHICAGO-OHARE  CLOUDY    59  52  77 N20G26    29.98R
CHICAGO-MIDWAY CLOUDY    60  53  77 N16       29.98R
AURORA         CLOUDY    62  55  77 N16G22    29.98R HAZE
LANSING*       LGT RAIN  57  54  89 N16G28    29.98R
JOLIET*        DRIZZLE   59  57  92 NE9G17    29.97S
WAUKEGAN       CLOUDY    59  52  77 N13G21    29.98R
DUPAGE AIRPORT CLOUDY    61  54  77 NE17      29.98R
KANKAKEE*      LGT RAIN  60  58  94 N13G22    29.95R
WHEELING       CLOUDY    59  51  75 N13G21    30.00R
MORRIS*        DRIZZLE   59  57  94 NE5       29.96R
ROMEOVILLE*    CLOUDY    58  56  92 NE15G21   29.97R
NORTHERLY ISL    N/A     58  53  84 N13         N/A
$$

LMZ740>746-071500-
SOUTHERN LAKE MICHIGAN

STATION/POSITION SKY/WX   TEMP    WIND        PRES    VSBY  WAVE
                          AIR SEA DIR/SP/G                  HT/PER
                          (F)     (DEG/KT/KT) (MB)    (MI)  (FT/S)
HARRISON CRIB              56     360/ 24/ 28   N/A
BURNHAM HARBOR             58     350/ 17/ 21   N/A
CALUMET HARBOR             58     340/ 16/ 22   N/A
BURNS HARBOR               59     360/ 19/ 23 1014.9R
MICHIGAN CITY              59     340/ 21/ 23   N/A
MICHIGAN CITY 6N           59 65   10/ 17/ 23   N/A           7/ 6
ST. JOSEPH                 60 64   30/ 17/ 19   N/A           6/ 2
$$

ILZ025>027-034>036-040-047-049-050-058-095>099-071500-
WEST-CENTRAL ILLINOIS

CITY           SKY/WX    TMP DP  RH WIND       PRES   REMARKS
QUINCY         LGT RAIN  63  61  93 N15       29.97S FOG
GALESBURG*     CLOUDY    64  59  86 N16       29.99R HAZE
MACOMB*        CLOUDY    64  61  91 N13G18    30.00R FOG
JACKSONVILLE*  LGT RAIN  67  65  94 N10       29.95R
PITTSFIELD*    LGT RAIN  65  63  93 N8        29.97R
$$

ILZ028>032-037-038-041>044-048-051>054-059>061-071500-
CENTRAL ILLINOIS

CITY           SKY/WX    TMP DP  RH WIND       PRES   REMARKS
PONTIAC        LGT RAIN  63  62  97 NE16G23   29.95R
BLOOMINGTON    LGT RAIN  66  65  97 NE14      29.94R FOG
DECATUR        LGT RAIN  73  71  93 W5        29.91R
PEORIA         CLOUDY    66  62  87 VRB7      29.95R FOG
LACON*         CLOUDY    63  60  91 NE8       29.95R
LINCOLN*       DRIZZLE   67  65  92 N8        29.94R
SPRINGFIELD    LGT RAIN  67  65  93 NW13      29.94R FOG
TAYLORVILLE    DRIZZLE   72  72 100 SW5       29.91S
$$

ILZ033-039-045-046-055>057-062-063-071500-
EAST-CENTRAL ILLINOIS

CITY           SKY/WX    TMP DP  RH WIND       PRES   REMARKS
CHAMPAIGN      LGT RAIN  73  71  93 SW3       29.90R
DANVILLE*      LGT RAIN  73  72  98 SW3       29.88R
RANTOUL*       LGT RAIN  75  73  92 W5        29.91R
MATTOON        CLOUDY    73  73 100 CALM      29.90S
PARIS*         RAIN      73  72  97 CALM      29.92R
$$

ILZ079-100>102-071500-
SOUTHWEST ILLINOIS

CITY           SKY/WX    TMP DP  RH WIND       PRES   REMARKS
ALTON          CLOUDY    73 N/A N/A W12       29.93R
BELLEVILLE     CLOUDY    74  74  99 SW8       29.92S
CAHOKIA*       CLOUDY    75  71  87 SW6       29.93R
SPARTA*        DRIZZLE   74  72  92 SW6       29.96R
$$

ILZ064>066-069>071-074>076-080>082-084>086-088>090-092>094-071500-
SOUTH-CENTRAL ILLINOIS

CITY           SKY/WX    TMP DP  RH WIND       PRES   REMARKS
CARBONDALE     TSTM      73  71  93 SW7       29.97S FOG
CAIRO*         CLOUDY    79  74  86 SW15G21   29.97S HX  82
EFFINGHAM*     CLOUDY    77  72  83 S6        29.92S
MARION         LGT RAIN  73  72  94 MISG      29.97R
MT. VERNON     CLOUDY    77  70  78 SW13G21   29.95R
CENTRALIA*     CLOUDY    77  71  80 SW13      29.94R
SALEM*         CLOUDY    79  73  80 SW10      29.93R HX  82
$$

ILZ067-068-072-073-078-083-087-091-071500-
SOUTHEAST ILLINOIS

CITY           SKY/WX    TMP DP  RH WIND       PRES   REMARKS
LAWRENCEVILLE  CLOUDY    78  73  84 S15       29.93R HX  81
FLORA*         CLOUDY    77  72  84 SW9       29.94R
FAIRFIELD*     CLOUDY    77  74  91 SW8       29.92S
HARRISBURG*    CLOUDY    78  77  96 SW9G17    29.96S HX  80
ROBINSON*      CLOUDY    78  73  84 SW9       29.93R HX  80
CARMI*         HVY RAIN  76  70  83 S10G16    29.94S
$$

ABBREVIATIONS USED IN REMARKS
   TC - TEMPERATURE IN CELSIUS
  WCI - WIND CHILL INDEX
   HX - HEAT INDEX
  VSB - VISIBILITY
$$




USA.gov is the U.S. government's official web portal to all federal, state and local government web resources and services.